Total_Precipitation_Accumulation
0.03 0.00 0.00 0.03 0.09 0.12 0.14 0.15 0.22 0.14 0.11 0.09 0.05 0.07 0.08 0.05 0.09 0.01 0.01 0.01 0.01 0.01 0.01 0.00 0.00 0.00 0.00 0.00 0.00 0.00 0.00 0.00 0.00 0.00 0.01 0.02 0.06 0.05 0.03 0.05 0.38 1.06 0.50
0.08 0.01 0.02 0.03 0.11 0.16 0.18 0.22 0.16 0.16 0.18 0.16 0.12 0.19 0.14 0.06 0.02 0.00 0.00 0.00 0.01 0.01 0.00 0.01 0.01 0.01 0.00 0.00 0.00 0.00 0.00 0.00 0.00 0.00 0.00 0.00 0.03 0.21 0.11 0.14 0.58 0.81 0.18
0.21 0.10 0.06 0.18 0.14 0.26 0.25 0.21 0.17 0.17 0.17 0.26 0.43 0.39 0.18 0.05 0.02 0.01 0.02 0.03 0.02 0.02 0.02 0.01 0.00 0.00 0.00 0.00 0.00 0.00 0.00 0.00 0.00 0.00 0.00 0.00 0.01 0.15 0.13 0.18 0.49 0.81 0.28
0.25 0.18 0.13 0.33 0.25 0.29 0.25 0.26 0.24 0.25 0.17 0.25 0.54 0.45 0.09 0.05 0.03 0.01 0.02 0.05 0.06 0.01 0.00 0.00 0.00 0.00 0.00 0.00 0.00 0.00 0.00 0.00 0.00 0.00 0.00 0.00 0.01 0.11 0.16 0.20 0.34 0.56 0.33
0.31 0.39 0.41 0.36 0.46 0.53 0.47 0.30 0.31 0.33 0.22 0.17 0.32 0.31 0.04 0.06 0.05 0.00 0.01 0.03 0.09 0.07 0.02 0.00 0.00 0.00 0.00 0.00 0.00 0.00 0.00 0.00 0.00 0.00 0.00 0.00 0.06 0.18 0.28 0.23 0.32 0.40 0.26
0.46 0.52 0.67 0.41 0.34 0.41 0.43 0.42 0.32 0.33 0.31 0.30 0.24 0.25 0.24 0.11 0.10 0.01 0.01 0.02 0.07 0.11 0.04 0.01 0.00 0.00 0.00 0.00 0.00 0.00 0.00 0.00 0.00 0.00 0.00 0.00 0.05 0.16 0.44 0.43 0.26 0.18 0.14
0.92 0.75 0.91 0.62 0.45 0.48 0.52 0.45 0.39 0.35 0.43 0.41 0.43 0.41 0.29 0.07 0.05 0.08 0.06 0.05 0.06 0.09 0.14 0.03 0.00 0.00 0.00 0.00 0.00 0.00 0.00 0.00 0.00 0.00 0.00 0.00 0.00 0.15 0.43 0.58 0.36 0.03 0.00
1.43 1.88 1.25 1.26 0.84 0.64 0.61 0.62 0.62 0.53 0.52 0.44 0.40 0.39 0.27 0.15 0.09 0.10 0.07 0.07 0.12 0.15 0.10 0.07 0.02 0.00 0.00 0.00 0.00 0.00 0.00 0.00 0.00 0.00 0.00 0.00 0.00 0.06 0.35 0.52 0.40 0.15 0.00
0.70 0.64 0.75 0.84 0.98 0.74 0.62 0.75 0.63 0.42 0.32 0.28 0.28 0.23 0.15 0.15 0.12 0.14 0.12 0.09 0.10 0.11 0.17 0.16 0.11 0.02 0.00 0.00 0.00 0.00 0.00 0.00 0.00 0.00 0.00 0.00 0.00 0.00 0.14 0.42 0.56 0.38 0.09
0.10 0.20 0.24 0.28 0.37 0.35 0.55 0.86 1.02 0.79 0.60 0.30 0.30 0.27 0.14 0.10 0.08 0.14 0.12 0.14 0.16 0.14 0.10 0.10 0.13 0.18 0.11 0.03 0.02 0.00 0.00 0.00 0.00 0.00 0.00 0.00 0.00 0.00 0.01 0.15 0.26 0.41 0.31
0.05 0.12 0.19 0.29 0.37 0.34 0.47 0.57 0.75 0.86 1.05 1.07 0.68 0.64 0.52 0.57 0.71 0.80 0.47 0.30 0.12 0.08 0.13 0.13 0.10 0.09 0.05 0.02 0.01 0.00 0.00 0.00 0.00 0.00 0.00 0.00 0.00 0.00 0.00 0.00 0.08 0.25 0.31
0.00 0.01 0.04 0.16 0.19 0.40 0.42 0.17 0.29 0.35 0.49 0.87 0.79 0.74 0.96 0.73 0.68 0.86 0.59 0.20 0.18 0.17 0.09 0.10 0.11 0.06 0.02 0.05 0.03 0.00 0.00 0.00 0.00 0.00 0.00 0.00 0.00 0.01 0.02 0.01 0.02 0.05 0.15
0.00 0.00 0.00 0.00 0.02 0.05 0.07 0.05 0.19 0.19 0.27 0.49 0.29 0.35 0.32 0.36 0.19 0.17 0.10 0.06 0.12 0.13 0.15 0.15 0.22 0.23 0.18 0.18 0.19 0.11 0.04 0.01 0.01 0.00 0.00 0.00 0.00 0.01 0.08 0.04 0.06 0.07 0.04
0.00 0.00 0.00 0.00 0.00 0.00 0.00 0.00 0.00 0.01 0.03 0.12 0.23 0.23 0.17 0.16 0.08 0.08 0.12 0.08 0.06 0.04 0.00 0.01 0.04 0.07 0.11 0.14 0.19 0.16 0.08 0.02 0.01 0.00 0.01 0.00 0.00 0.00 0.07 0.09 0.04 0.08 0.11
0.00 0.00 0.00 0.00 0.00 0.00 0.00 0.00 0.00 0.00 0.00 0.00 0.01 0.04 0.13 0.17 0.10 0.05 0.04 0.06 0.04 0.01 0.00 0.00 0.00 0.00 0.00 0.03 0.05 0.07 0.06 0.04 0.03 0.04 0.02 0.00 0.00 0.00 0.02 0.04 0.04 0.06 0.14
0.00 0.00 0.00 0.00 0.00 0.00 0.00 0.00 0.00 0.00 0.00 0.00 0.00 0.00 0.01 0.04 0.10 0.06 0.02 0.01 0.00 0.00 0.00 0.00 0.00 0.00 0.00 0.00 0.00 0.01 0.04 0.03 0.01 0.01 0.01 0.01 0.01 0.00 0.00 0.00 0.00 0.01 0.08
0.00 0.00 0.00 0.00 0.00 0.00 0.00 0.00 0.00 0.00 0.00 0.00 0.00 0.00 0.00 0.00 0.00 0.00 0.00 0.00 0.00 0.00 0.00 0.00 0.00 0.00 0.00 0.00 0.00 0.00 0.00 0.00 0.00 0.00 0.00 0.00 0.00 0.00 0.00 0.00 0.01 0.01 0.03
0.00 0.00 0.00 0.00 0.00 0.00 0.00 0.00 0.00 0.00 0.00 0.00 0.00 0.00 0.00 0.00 0.00 0.00 0.00 0.00 0.00 0.00 0.00 0.00 0.00 0.00 0.00 0.00 0.00 0.00 0.00 0.00 0.00 0.00 0.00 0.00 0.00 0.00 0.00 0.00 0.00 0.00 0.03
0.00 0.00 0.00 0.00 0.00 0.00 0.00 0.00 0.00 0.00 0.00 0.00 0.00 0.00 0.00 0.00 0.00 0.00 0.00 0.00 0.00 0.00 0.00 0.00 0.00 0.00 0.00 0.00 0.00 0.00 0.00 0.00 0.00 0.00 0.00 0.00 0.00 0.00 0.00 0.00 0.00 0.00 0.04
0.00 0.00 0.00 0.00 0.00 0.00 0.00 0.00 0.00 0.00 0.00 0.00 0.00 0.00 0.00 0.00 0.00 0.00 0.00 0.00 0.00 0.00 0.00 0.00 0.00 0.00 0.00 0.00 0.00 0.00 0.00 0.00 0.00 0.00 0.00 0.00 0.00 0.00 0.00 0.00 0.00 0.00 0.00
0.00 0.00 0.00 0.00 0.00 0.00 0.00 0.00 0.00 0.00 0.00 0.00 0.00 0.00 0.00 0.00 0.00 0.00 0.00 0.00 0.00 0.00 0.00 0.00 0.00 0.00 0.00 0.00 0.00 0.00 0.00 0.00 0.00 0.00 0.00 0.00 0.00 0.00 0.00 0.00 0.00 0.02 0.01
0.00 0.00 0.00 0.00 0.00 0.00 0.00 0.00 0.00 0.00 0.00 0.00 0.00 0.00 0.00 0.00 0.00 0.00 0.00 0.00 0.00 0.00 0.00 0.00 0.00 0.00 0.00 0.01 0.01 0.00 0.00 0.00 0.00 0.00 0.00 0.00 0.00 0.00 0.00 0.00 0.00 0.00 0.02
0.00 0.00 0.00 0.00 0.00 0.00 0.00 0.00 0.00 0.00 0.00 0.00 0.00 0.00 0.00 0.00 0.00 0.00 0.00 0.00 0.00 0.00 0.00 0.00 0.00 0.00 0.00 0.00 0.01 0.02 0.01 0.00 0.00 0.00 0.00 0.00 0.00 0.00 0.00 0.00 0.00 0.00 0.00
0.00 0.00 0.00 0.00 0.00 0.00 0.00 0.00 0.00 0.00 0.00 0.00 0.00 0.00 0.00 0.00 0.00 0.00 0.00 0.00 0.00 0.00 0.00 0.00 0.00 0.00 0.00 0.00 0.01 0.02 0.02 0.02 0.03 0.01 0.00 0.00 0.00 0.00 0.00 0.00 0.00 0.00 0.00
0.00 0.00 0.00 0.00 0.00 0.00 0.00 0.00 0.00 0.00 0.00 0.00 0.00 0.00 0.00 0.00 0.00 0.00 0.00 0.00 0.00 0.00 0.00 0.00 0.00 0.00 0.00 0.01 0.02 0.02 0.03 0.03 0.04 0.06 0.03 0.00 0.00 0.00 0.00 0.00 0.00 0.00 0.00
0.00 0.00 0.00 0.00 0.00 0.00 0.00 0.00 0.00 0.00 0.00 0.00 0.00 0.00 0.00 0.00 0.00 0.00 0.00 0.00 0.00 0.00 0.00 0.00 0.00 0.00 0.01 0.01 0.02 0.02 0.03 0.05 0.03 0.05 0.05 0.01 0.00 0.00 0.00 0.00 0.00 0.00 0.00